Temp
-15 -15 -14 -13 -13 -12 -11 -11 -10 -10 -10 -9 -9 -8 -8 -7 -7 -7 -7 -7 -7 -7 -7 -6 -6 -6 -6 -6 -6 -6 -6 -6 -5 -5 -4 -4 -4 -4 -4 -4 -4 -4 -3 -3 -3 -2 -2 -2 -2 -2 -1 -1 -1 -0 -0 0 -0 -1 -1 -0 -0 -1 -2
-15 -15 -14 -13 -13 -12 -11 -11 -10 -10 -10 -9 -9 -8 -8 -7 -7 -7 -7 -7 -7 -7 -7 -7 -7 -6 -6 -7 -6 -6 -6 -6 -6 -5 -5 -4 -4 -4 -4 -4 -4 -4 -4 -4 -3 -3 -3 -3 -3 -2 -2 -2 -1 -1 -1 -0 -1 -1 -1 -1 -1 -1 -2
-15 -15 -14 -14 -13 -12 -12 -11 -10 -10 -9 -9 -9 -9 -8 -8 -7 -7 -7 -7 -7 -7 -7 -7 -7 -7 -6 -7 -7 -7 -7 -7 -6 -6 -5 -5 -4 -4 -5 -4 -4 -4 -4 -4 -4 -4 -3 -3 -3 -3 -3 -2 -2 -2 -1 -1 -1 -1 -2 -1 -1 -1 -2
-15 -15 -15 -14 -14 -13 -12 -12 -11 -10 -9 -9 -9 -9 -9 -8 -8 -8 -8 -8 -7 -7 -7 -7 -7 -7 -7 -7 -7 -7 -7 -7 -7 -6 -6 -5 -5 -5 -5 -5 -4 -4 -4 -4 -4 -4 -4 -4 -4 -4 -3 -3 -3 -3 -2 -2 -2 -2 -2 -2 -2 -2 -2
-16 -16 -15 -15 -14 -14 -13 -12 -11 -11 -10 -9 -9 -9 -8 -8 -8 -8 -8 -8 -8 -8 -8 -8 -8 -7 -7 -7 -7 -7 -7 -7 -7 -7 -6 -5 -5 -5 -5 -5 -5 -5 -4 -4 -5 -5 -5 -4 -4 -4 -4 -4 -4 -3 -3 -3 -2 -3 -3 -3 -3 -3 -3
-17 -16 -16 -15 -15 -14 -13 -12 -11 -11 -10 -10 -10 -9 -9 -9 -8 -8 -8 -8 -8 -8 -8 -8 -8 -7 -7 -7 -7 -7 -7 -7 -7 -7 -6 -6 -6 -6 -5 -5 -5 -5 -5 -5 -5 -5 -5 -5 -5 -5 -5 -5 -4 -4 -4 -4 -3 -3 -3 -3 -3 -3 -4
-16 -16 -16 -15 -15 -14 -13 -12 -11 -11 -11 -10 -10 -10 -9 -9 -9 -8 -8 -8 -8 -7 -7 -7 -7 -8 -7 -7 -7 -7 -7 -7 -7 -7 -7 -6 -6 -6 -6 -6 -5 -5 -5 -5 -5 -5 -5 -5 -5 -5 -5 -5 -5 -5 -5 -4 -4 -4 -3 -3 -3 -3 -4
-16 -16 -15 -15 -14 -14 -13 -12 -11 -11 -11 -10 -10 -10 -10 -9 -9 -8 -8 -8 -8 -8 -7 -7 -7 -7 -8 -7 -7 -7 -7 -7 -7 -7 -7 -7 -6 -6 -6 -6 -6 -6 -5 -5 -5 -6 -5 -5 -5 -6 -6 -6 -5 -5 -5 -5 -5 -4 -4 -4 -4 -4 -4
-16 -15 -15 -14 -14 -13 -13 -12 -11 -11 -10 -10 -10 -10 -10 -9 -9 -9 -8 -8 -8 -8 -7 -7 -7 -7 -8 -8 -7 -7 -7 -7 -7 -7 -7 -7 -7 -7 -6 -6 -6 -6 -6 -6 -6 -6 -6 -6 -6 -6 -6 -6 -6 -5 -5 -5 -5 -5 -5 -5 -5 -5 -5
-16 -15 -15 -14 -14 -14 -13 -12 -11 -11 -11 -10 -10 -10 -10 -9 -9 -9 -8 -8 -8 -7 -7 -7 -7 -7 -8 -8 -8 -7 -7 -7 -7 -7 -7 -7 -7 -7 -7 -7 -6 -6 -6 -6 -6 -6 -6 -6 -6 -6 -6 -6 -5 -5 -5 -5 -5 -5 -5 -5 -6 -6 -6
-15 -15 -14 -14 -14 -14 -13 -12 -12 -11 -11 -10 -10 -10 -10 -10 -9 -9 -8 -8 -8 -7 -7 -7 -7 -7 -8 -8 -8 -8 -8 -7 -7 -7 -7 -8 -8 -8 -7 -7 -7 -6 -6 -6 -6 -6 -6 -6 -6 -6 -6 -6 -6 -6 -6 -6 -5 -5 -5 -5 -6 -6 -6
-14 -14 -14 -14 -13 -13 -13 -13 -12 -11 -11 -11 -10 -10 -10 -10 -9 -9 -8 -8 -8 -7 -7 -7 -7 -7 -8 -8 -8 -8 -8 -8 -7 -7 -7 -7 -8 -8 -8 -7 -7 -7 -7 -7 -6 -7 -7 -6 -6 -6 -6 -6 -6 -6 -6 -6 -6 -6 -6 -6 -5 -5 -6
-14 -13 -13 -13 -13 -12 -13 -12 -12 -11 -11 -11 -10 -10 -10 -10 -9 -9 -8 -8 -7 -7 -7 -7 -7 -7 -7 -7 -8 -8 -8 -8 -8 -8 -7 -7 -8 -8 -8 -7 -7 -7 -7 -7 -7 -7 -7 -6 -6 -6 -6 -6 -6 -6 -7 -7 -7 -6 -6 -6 -6 -6 -6
-13 -12 -12 -12 -12 -11 -11 -11 -11 -11 -11 -10 -10 -10 -10 -9 -9 -9 -9 -8 -8 -8 -7 -7 -7 -7 -7 -7 -7 -7 -8 -8 -8 -8 -7 -8 -8 -8 -8 -8 -7 -7 -7 -7 -7 -7 -7 -7 -7 -7 -7 -7 -7 -7 -7 -7 -7 -7 -7 -7 -7 -7 -7
-12 -11 -11 -11 -11 -10 -10 -10 -10 -10 -10 -9 -9 -9 -9 -9 -9 -9 -9 -8 -8 -8 -8 -7 -7 -7 -7 -7 -7 -7 -8 -8 -8 -8 -8 -8 -8 -8 -8 -8 -8 -8 -7 -7 -7 -7 -7 -7 -7 -7 -7 -7 -7 -7 -7 -7 -7 -7 -7 -7 -8 -8 -8
-11 -11 -10 -10 -10 -10 -9 -9 -9 -9 -9 -9 -9 -8 -8 -8 -8 -8 -8 -8 -8 -8 -7 -7 -7 -7 -7 -7 -7 -7 -8 -8 -8 -8 -8 -8 -8 -8 -8 -8 -8 -8 -8 -8 -7 -7 -7 -8 -8 -8 -8 -8 -8 -8 -8 -8 -8 -8 -8 -8 -9 -9 -9
-11 -10 -10 -10 -10 -10 -9 -9 -8 -8 -8 -8 -8 -8 -8 -8 -8 -8 -8 -8 -8 -8 -7 -7 -7 -7 -7 -7 -7 -8 -8 -8 -8 -8 -8 -8 -8 -8 -9 -9 -8 -8 -8 -8 -8 -7 -8 -8 -8 -8 -8 -8 -8 -8 -8 -8 -9 -9 -9 -9 -9 -9 -9
-11 -10 -10 -10 -10 -10 -10 -9 -8 -8 -8 -8 -8 -8 -8 -8 -8 -8 -7 -7 -7 -7 -7 -7 -7 -7 -7 -7 -7 -7 -8 -8 -8 -8 -8 -8 -8 -8 -8 -8 -8 -8 -8 -8 -8 -8 -8 -8 -8 -9 -8 -8 -8 -8 -8 -9 -9 -9 -9 -9 -9 -9 -9
-11 -11 -11 -11 -11 -10 -10 -9 -9 -8 -8 -8 -8 -8 -8 -8 -8 -8 -8 -8 -7 -7 -7 -7 -7 -7 -7 -7 -7 -8 -8 -8 -8 -8 -8 -8 -8 -8 -8 -8 -8 -8 -8 -8 -8 -8 -8 -9 -9 -9 -9 -9 -9 -9 -8 -8 -9 -9 -9 -9 -9 -9 -10
-11 -11 -11 -11 -11 -11 -10 -10 -9 -8 -8 -8 -8 -8 -8 -8 -8 -8 -8 -8 -8 -8 -7 -7 -7 -7 -7 -8 -8 -8 -7 -7 -8 -8 -8 -8 -8 -8 -8 -8 -8 -8 -8 -8 -8 -8 -8 -9 -9 -9 -9 -9 -9 -9 -9 -9 -9 -9 -9 -9 -9 -9 -9
-11 -11 -11 -11 -11 -10 -11 -10 -10 -9 -9 -9 -9 -9 -8 -8 -8 -7 -7 -7 -8 -8 -8 -8 -7 -7 -7 -7 -7 -7 -7 -7 -7 -8 -8 -8 -8 -8 -7 -7 -7 -8 -8 -8 -8 -8 -8 -9 -9 -9 -9 -9 -10 -9 -9 -9 -9 -9 -10 -10 -10 -10 -10
-11 -11 -11 -10 -10 -10 -10 -10 -10 -10 -10 -10 -10 -9 -9 -8 -8 -7 -7 -7 -7 -7 -8 -8 -8 -8 -8 -7 -7 -7 -7 -7 -7 -7 -8 -8 -8 -8 -7 -7 -7 -7 -7 -7 -8 -8 -8 -9 -9 -9 -9 -9 -10 -10 -10 -10 -10 -10 -10 -10 -10 -10 -10
-11 -11 -11 -10 -11 -11 -10 -10 -10 -10 -10 -10 -10 -9 -9 -8 -8 -8 -8 -8 -8 -8 -8 -9 -9 -9 -9 -8 -8 -8 -7 -7 -7 -7 -8 -8 -8 -8 -7 -7 -7 -7 -7 -8 -8 -8 -8 -8 -9 -9 -9 -9 -10 -10 -10 -10 -10 -10 -10 -10 -10 -10 -11
-11 -11 -11 -11 -11 -11 -10 -10 -10 -10 -10 -10 -10 -10 -9 -8 -8 -8 -8 -8 -8 -9 -9 -9 -9 -9 -9 -9 -9 -8 -8 -8 -7 -7 -8 -8 -8 -7 -8 -8 -8 -8 -8 -8 -8 -8 -9 -9 -9 -9 -9 -9 -10 -10 -10 -10 -10 -10 -10 -10 -10 -10 -11
-11 -11 -11 -11 -11 -10 -10 -10 -10 -10 -10 -11 -10 -10 -9 -8 -8 -8 -8 -9 -9 -9 -10 -10 -9 -9 -9 -9 -9 -9 -8 -8 -8 -8 -8 -7 -7 -7 -7 -8 -8 -8 -8 -8 -8 -8 -9 -9 -9 -9 -9 -9 -9 -10 -10 -10 -10 -11 -11 -10 -10 -11 -11
-11 -11 -11 -11 -11 -10 -10 -10 -10 -11 -11 -11 -10 -10 -9 -9 -9 -9 -9 -9 -9 -9 -10 -10 -9 -9 -9 -9 -9 -9 -9 -8 -8 -8 -8 -7 -7 -7 -7 -8 -8 -8 -8 -8 -8 -8 -9 -9 -9 -9 -9 -9 -9 -10 -10 -11 -11 -11 -11 -11 -11 -11 -12
-11 -11 -11 -11 -10 -10 -10 -10 -11 -11 -11 -10 -10 -10 -9 -9 -9 -9 -9 -9 -9 -9 -9 -10 -10 -9 -9 -9 -9 -9 -9 -9 -8 -8 -8 -8 -8 -7 -8 -8 -8 -8 -8 -8 -8 -9 -9 -9 -9 -9 -10 -10 -10 -10 -11 -11 -11 -11 -11 -11 -11 -12 -12
-11 -11 -11 -11 -10 -10 -10 -10 -11 -10 -10 -10 -10 -9 -9 -9 -9 -9 -9 -9 -9 -9 -9 -10 -10 -10 -10 -10 -9 -9 -9 -9 -9 -9 -9 -9 -8 -8 -8 -8 -8 -8 -8 -9 -9 -9 -9 -9 -10 -10 -10 -10 -11 -11 -11 -11 -11 -11 -12 -12 -12 -12 -13
-12 -11 -11 -11 -10 -10 -10 -10 -11 -10 -10 -10 -10 -9 -9 -9 -9 -9 -10 -10 -10 -10 -10 -10 -10 -10 -10 -10 -10 -10 -10 -10 -10 -10 -9 -9 -9 -9 -9 -9 -9 -9 -9 -9 -10 -10 -10 -10 -10 -10 -11 -11 -11 -11 -11 -12 -12 -12 -12 -13 -13 -13 -13
-12 -11 -11 -11 -10 -10 -10 -10 -10 -10 -10 -10 -10 -10 -9 -9 -9 -10 -10 -10 -10 -10 -10 -10 -10 -11 -11 -11 -11 -11 -10 -10 -10 -10 -10 -10 -10 -10 -10 -10 -10 -10 -10 -10 -11 -10 -10 -10 -11 -11 -11 -11 -11 -12 -12 -12 -13 -13 -13 -13 -13 -13 -13
-12 -11 -11 -10 -10 -10 -10 -10 -10 -10 -10 -10 -10 -10 -10 -10 -10 -10 -10 -10 -11 -11 -10 -10 -11 -11 -11 -11 -11 -11 -11 -10 -10 -10 -10 -10 -10 -11 -11 -11 -11 -11 -12 -11 -11 -11 -11 -11 -11 -11 -12 -12 -12 -12 -13 -13 -13 -13 -13 -13 -13 -13 -13
-11 -11 -10 -10 -10 -10 -10 -10 -10 -10 -10 -10 -10 -10 -10 -10 -10 -11 -11 -11 -11 -11 -11 -11 -11 -11 -12 -12 -12 -11 -11 -11 -11 -10 -10 -10 -11 -11 -11 -12 -12 -12 -12 -12 -12 -12 -11 -11 -12 -12 -12 -12 -12 -13 -13 -13 -13 -13 -14 -14 -14 -14 -14
-11 -11 -10 -10 -10 -10 -10 -10 -10 -10 -10 -10 -10 -10 -10 -10 -11 -11 -11 -11 -11 -11 -11 -11 -11 -12 -12 -12 -12 -11 -11 -11 -11 -11 -11 -11 -11 -11 -12 -12 -12 -12 -13 -12 -12 -12 -12 -12 -12 -12 -12 -13 -13 -13 -13 -13 -14 -14 -14 -14 -14 -14 -14
-11 -11 -10 -10 -10 -10 -10 -10 -10 -10 -10 -10 -11 -11 -11 -11 -11 -11 -11 -11 -11 -11 -11 -11 -12 -12 -12 -13 -12 -12 -11 -11 -11 -11 -11 -11 -12 -12 -12 -13 -13 -13 -13 -13 -13 -13 -12 -12 -12 -12 -13 -13 -13 -13 -14 -14 -14 -14 -14 -14 -14 -14 -14
-12 -11 -11 -11 -10 -10 -10 -10 -10 -10 -10 -11 -11 -11 -11 -11 -11 -11 -11 -12 -12 -12 -12 -12 -12 -12 -12 -12 -12 -12 -12 -11 -12 -12 -12 -12 -12 -13 -13 -13 -13 -13 -13 -13 -13 -13 -13 -13 -13 -13 -13 -13 -13 -14 -14 -14 -14 -14 -14 -14 -14 -14 -14
-12 -11 -11 -11 -11 -10 -10 -10 -10 -10 -10 -10 -10 -11 -11 -11 -11 -11 -12 -12 -12 -12 -12 -12 -12 -12 -12 -12 -12 -12 -12 -12 -12 -12 -13 -13 -13 -13 -13 -13 -13 -14 -13 -13 -13 -13 -13 -13 -13 -13 -13 -14 -14 -14 -14 -14 -14 -14 -14 -14 -14 -14 -14
Height
1367 1367 1367 1367 1367 1366 1366 1366 1366 1366 1367 1367 1367 1368 1369 1371 1372 1373 1374 1375 1377 1378 1379 1380 1381 1382 1384 1386 1387 1388 1389 1390 1391 1393 1395 1397 1398 1400 1402 1404 1406 1407 1408 1409 1411 1414 1416 1419 1423 1425 1428 1429 1431 1433 1435 1437 1439 1441 1443 1446 1449 1452 1455
1364 1364 1363 1363 1363 1363 1363 1363 1362 1363 1363 1363 1363 1364 1365 1366 1368 1369 1371 1372 1373 1374 1376 1377 1378 1379 1380 1382 1383 1384 1385 1386 1387 1389 1391 1392 1394 1395 1398 1400 1402 1403 1404 1406 1408 1410 1412 1415 1418 1421 1423 1425 1427 1429 1431 1433 1435 1436 1438 1440 1444 1448 1451
1360 1360 1360 1360 1360 1359 1359 1359 1359 1359 1359 1360 1360 1361 1361 1362 1364 1366 1367 1369 1370 1371 1372 1373 1374 1375 1377 1379 1380 1381 1382 1383 1384 1385 1387 1388 1390 1391 1394 1396 1398 1399 1400 1402 1404 1406 1408 1411 1414 1417 1419 1421 1423 1425 1427 1429 1431 1433 1434 1435 1439 1443 1447
1356 1356 1356 1355 1355 1354 1354 1355 1355 1355 1355 1356 1356 1357 1358 1359 1360 1362 1364 1365 1366 1368 1369 1369 1370 1372 1373 1375 1376 1377 1379 1379 1380 1382 1383 1385 1386 1388 1390 1392 1394 1395 1397 1399 1401 1403 1405 1408 1410 1413 1415 1418 1420 1421 1423 1425 1427 1429 1430 1432 1434 1438 1442
1352 1352 1351 1351 1350 1350 1351 1351 1352 1352 1352 1353 1353 1354 1355 1356 1357 1359 1360 1362 1363 1364 1365 1366 1367 1368 1370 1372 1373 1374 1375 1376 1377 1379 1380 1381 1383 1384 1386 1388 1390 1392 1394 1395 1397 1399 1401 1404 1406 1409 1411 1413 1415 1417 1419 1421 1422 1424 1426 1428 1430 1433 1437
1348 1348 1347 1347 1347 1347 1347 1348 1348 1349 1349 1349 1350 1351 1352 1353 1354 1355 1357 1358 1360 1361 1362 1363 1364 1365 1366 1368 1369 1371 1372 1374 1375 1376 1377 1379 1380 1381 1383 1385 1386 1388 1390 1392 1393 1395 1397 1399 1402 1404 1407 1408 1411 1413 1414 1416 1418 1420 1422 1424 1426 1429 1432
1345 1345 1344 1344 1343 1344 1344 1344 1345 1345 1346 1346 1347 1348 1349 1350 1351 1353 1354 1355 1357 1358 1359 1360 1361 1362 1363 1364 1366 1367 1369 1371 1372 1373 1374 1376 1377 1378 1380 1381 1383 1385 1387 1388 1390 1390 1392 1395 1398 1401 1403 1405 1407 1409 1410 1412 1414 1415 1417 1420 1422 1425 1428
1342 1341 1341 1340 1340 1340 1341 1341 1341 1342 1343 1343 1344 1345 1346 1347 1348 1350 1351 1352 1354 1355 1356 1357 1358 1359 1360 1361 1363 1364 1366 1368 1369 1370 1371 1373 1374 1376 1377 1378 1379 1381 1383 1385 1386 1386 1388 1390 1394 1397 1399 1402 1403 1404 1405 1406 1408 1410 1412 1415 1418 1421 1424
1338 1337 1337 1336 1336 1336 1336 1336 1337 1338 1339 1340 1341 1342 1343 1344 1345 1347 1348 1349 1350 1352 1353 1354 1355 1356 1357 1358 1360 1361 1363 1364 1366 1367 1368 1370 1371 1372 1373 1374 1375 1377 1380 1381 1382 1382 1384 1386 1389 1391 1394 1396 1397 1398 1400 1402 1405 1407 1410 1413 1416 1418 1420
1335 1334 1333 1332 1331 1331 1331 1331 1332 1334 1335 1336 1338 1339 1340 1341 1342 1343 1344 1346 1347 1348 1349 1350 1351 1353 1354 1355 1357 1358 1359 1361 1362 1364 1365 1366 1368 1369 1370 1371 1372 1374 1376 1378 1378 1379 1380 1382 1384 1387 1389 1391 1394 1396 1398 1400 1402 1405 1407 1410 1412 1414 1417
1332 1331 1330 1329 1328 1327 1326 1326 1327 1329 1331 1333 1334 1335 1336 1337 1338 1340 1341 1342 1343 1344 1346 1347 1348 1350 1351 1352 1354 1355 1356 1357 1359 1361 1362 1363 1364 1366 1367 1368 1370 1371 1372 1374 1375 1375 1377 1379 1381 1383 1385 1388 1391 1394 1395 1397 1399 1401 1404 1406 1408 1410 1412
1329 1328 1327 1326 1325 1324 1323 1323 1323 1324 1326 1328 1330 1332 1333 1333 1335 1336 1337 1338 1339 1341 1342 1343 1344 1346 1348 1349 1350 1352 1353 1354 1355 1357 1359 1361 1362 1363 1364 1365 1366 1368 1369 1370 1371 1372 1374 1376 1378 1380 1383 1385 1387 1390 1392 1394 1396 1398 1400 1402 1404 1406 1408
1327 1326 1325 1324 1323 1322 1321 1320 1320 1321 1322 1323 1325 1328 1329 1330 1331 1332 1333 1334 1335 1337 1338 1339 1341 1343 1344 1346 1347 1348 1350 1351 1352 1354 1356 1358 1359 1360 1361 1362 1363 1364 1366 1367 1368 1369 1370 1372 1375 1378 1380 1382 1385 1387 1389 1391 1392 1395 1397 1399 1401 1403 1405
1325 1324 1323 1322 1321 1320 1319 1318 1319 1319 1320 1321 1322 1324 1326 1327 1327 1328 1329 1330 1331 1332 1334 1335 1337 1339 1340 1342 1343 1345 1346 1347 1349 1350 1352 1354 1355 1357 1358 1359 1360 1361 1362 1364 1365 1366 1368 1370 1373 1376 1378 1380 1382 1384 1386 1387 1389 1392 1394 1396 1398 1401 1403
1323 1322 1321 1320 1319 1318 1318 1318 1318 1318 1318 1319 1320 1321 1322 1323 1324 1325 1326 1327 1328 1329 1331 1332 1334 1336 1337 1338 1340 1341 1342 1344 1345 1346 1348 1350 1351 1353 1354 1355 1356 1358 1359 1361 1362 1364 1366 1368 1370 1373 1376 1378 1380 1382 1383 1385 1387 1390 1392 1394 1396 1397 1399
1322 1321 1320 1319 1318 1317 1317 1317 1317 1317 1317 1317 1318 1319 1319 1320 1321 1322 1323 1324 1325 1327 1328 1330 1331 1332 1334 1335 1336 1338 1339 1340 1342 1343 1345 1346 1348 1349 1350 1352 1353 1355 1357 1358 1360 1362 1364 1366 1368 1370 1373 1375 1377 1379 1381 1383 1385 1387 1389 1391 1393 1394 1396
1322 1321 1320 1319 1318 1317 1317 1316 1316 1316 1316 1315 1316 1316 1316 1317 1318 1319 1321 1321 1323 1324 1325 1326 1328 1329 1330 1332 1333 1334 1336 1337 1339 1340 1341 1343 1344 1346 1347 1348 1350 1352 1354 1356 1358 1360 1362 1364 1366 1367 1369 1372 1374 1376 1378 1380 1382 1383 1385 1388 1390 1391 1393
1323 1322 1320 1319 1318 1317 1316 1316 1316 1315 1315 1315 1315 1315 1315 1316 1316 1317 1318 1319 1320 1322 1323 1324 1325 1326 1327 1328 1329 1331 1332 1334 1335 1336 1338 1340 1341 1342 1343 1344 1346 1348 1350 1353 1355 1357 1360 1361 1363 1365 1366 1369 1371 1373 1375 1377 1378 1380 1383 1385 1387 1388 1391
1322 1321 1320 1319 1318 1317 1316 1315 1315 1315 1314 1314 1314 1314 1314 1314 1315 1316 1316 1317 1318 1319 1320 1321 1322 1323 1324 1325 1326 1327 1329 1330 1332 1333 1334 1336 1338 1339 1340 1342 1344 1345 1347 1350 1352 1354 1356 1358 1360 1362 1364 1366 1368 1370 1372 1374 1376 1379 1381 1383 1384 1386 1389
1322 1321 1320 1319 1317 1316 1315 1314 1313 1313 1313 1313 1313 1313 1313 1313 1314 1314 1315 1315 1316 1317 1317 1318 1319 1320 1321 1322 1323 1325 1326 1327 1329 1330 1331 1332 1334 1335 1337 1339 1341 1343 1345 1347 1349 1352 1354 1355 1358 1359 1361 1364 1366 1368 1370 1372 1374 1376 1378 1381 1383 1384 1386
1322 1320 1319 1318 1317 1315 1314 1313 1312 1311 1311 1311 1311 1311 1311 1311 1312 1312 1313 1313 1313 1314 1314 1315 1316 1317 1318 1319 1320 1322 1323 1324 1326 1327 1328 1329 1330 1332 1335 1337 1339 1341 1343 1345 1347 1349 1351 1353 1355 1357 1359 1361 1363 1365 1368 1370 1371 1374 1376 1379 1380 1382 1384
1321 1320 1318 1317 1316 1314 1313 1312 1310 1309 1309 1309 1309 1309 1309 1309 1309 1309 1309 1309 1310 1310 1311 1311 1312 1313 1314 1316 1317 1318 1320 1321 1323 1324 1325 1325 1327 1330 1333 1335 1336 1338 1341 1343 1345 1347 1349 1351 1353 1355 1357 1359 1360 1363 1365 1367 1370 1372 1374 1376 1378 1380 1382
1321 1319 1317 1316 1314 1313 1311 1310 1309 1307 1307 1306 1306 1306 1307 1307 1307 1306 1306 1306 1306 1306 1307 1308 1309 1309 1310 1312 1313 1314 1316 1318 1319 1321 1322 1323 1325 1328 1330 1332 1334 1336 1338 1339 1341 1344 1346 1348 1350 1351 1354 1356 1358 1360 1363 1365 1367 1370 1372 1374 1376 1378 1380
1321 1319 1317 1315 1313 1311 1309 1308 1306 1305 1304 1304 1304 1304 1305 1305 1305 1304 1304 1304 1304 1304 1304 1305 1305 1306 1307 1308 1308 1310 1312 1314 1315 1317 1318 1320 1322 1325 1327 1329 1330 1332 1334 1336 1338 1341 1343 1345 1347 1348 1351 1353 1355 1358 1361 1363 1365 1367 1369 1372 1374 1376 1378
1321 1319 1317 1315 1313 1310 1308 1306 1304 1302 1301 1301 1302 1303 1303 1303 1303 1303 1302 1302 1302 1303 1303 1303 1303 1304 1304 1304 1305 1306 1308 1310 1311 1313 1315 1317 1319 1321 1323 1324 1326 1328 1331 1333 1335 1338 1340 1342 1344 1345 1348 1350 1353 1356 1358 1361 1363 1365 1367 1369 1371 1373 1375
1320 1318 1316 1314 1312 1309 1308 1306 1304 1302 1301 1300 1301 1302 1302 1302 1302 1302 1302 1302 1301 1302 1302 1302 1302 1302 1302 1303 1303 1304 1305 1306 1308 1309 1311 1313 1315 1317 1318 1319 1322 1325 1327 1329 1332 1334 1336 1338 1340 1343 1346 1349 1351 1353 1355 1358 1360 1362 1364 1366 1368 1370 1372
1320 1318 1316 1313 1311 1309 1307 1305 1303 1302 1302 1301 1301 1302 1302 1302 1302 1302 1302 1302 1301 1301 1301 1301 1301 1301 1302 1302 1302 1303 1304 1304 1305 1306 1308 1309 1311 1313 1315 1317 1319 1321 1323 1325 1328 1330 1332 1335 1338 1341 1344 1346 1349 1351 1353 1356 1358 1361 1362 1364 1365 1368 1370
1320 1318 1316 1314 1311 1309 1307 1305 1303 1302 1302 1302 1302 1302 1302 1302 1302 1302 1302 1302 1301 1301 1301 1301 1300 1300 1301 1301 1302 1302 1303 1304 1304 1305 1306 1308 1309 1311 1313 1315 1317 1319 1321 1323 1326 1328 1331 1334 1337 1340 1342 1345 1347 1350 1352 1354 1357 1359 1361 1362 1364 1366 1368
1322 1319 1317 1314 1312 1309 1306 1305 1303 1302 1302 1303 1303 1302 1302 1302 1303 1302 1302 1302 1301 1301 1301 1300 1300 1300 1300 1301 1302 1302 1303 1304 1305 1305 1306 1308 1309 1311 1313 1315 1317 1319 1321 1324 1326 1329 1331 1333 1336 1338 1341 1344 1346 1349 1351 1353 1356 1358 1360 1362 1363 1365 1368
1322 1320 1317 1315 1312 1309 1307 1305 1304 1303 1303 1303 1303 1303 1303 1303 1303 1302 1302 1301 1301 1301 1301 1300 1300 1300 1301 1301 1302 1303 1304 1304 1305 1306 1307 1308 1310 1312 1313 1315 1317 1319 1322 1324 1326 1328 1330 1332 1335 1337 1340 1343 1345 1348 1351 1353 1355 1358 1360 1361 1363 1365 1367
1322 1320 1317 1315 1312 1310 1307 1306 1305 1304 1304 1304 1304 1304 1304 1304 1303 1303 1302 1302 1301 1301 1301 1301 1301 1301 1301 1302 1303 1304 1304 1305 1306 1307 1308 1310 1311 1313 1314 1316 1318 1319 1322 1324 1326 1328 1330 1332 1334 1337 1339 1342 1344 1347 1350 1353 1355 1357 1359 1361 1363 1364 1366
1321 1319 1317 1315 1313 1311 1309 1308 1307 1307 1306 1306 1306 1305 1305 1304 1304 1303 1303 1302 1302 1302 1302 1302 1302 1302 1303 1303 1304 1305 1306 1306 1308 1309 1310 1311 1312 1313 1315 1316 1318 1319 1321 1323 1326 1328 1330 1332 1334 1337 1339 1342 1344 1347 1350 1352 1354 1356 1358 1360 1362 1363 1365
1322 1320 1318 1315 1314 1312 1311 1310 1309 1309 1308 1308 1307 1307 1306 1305 1305 1304 1304 1303 1303 1303 1303 1303 1304 1304 1304 1304 1305 1306 1307 1308 1310 1311 1312 1312 1313 1314 1315 1317 1318 1320 1321 1323 1326 1328 1330 1332 1334 1337 1339 1342 1345 1347 1350 1352 1353 1355 1357 1359 1360 1362 1365
1322 1320 1318 1317 1315 1314 1313 1312 1311 1311 1310 1310 1309 1309 1308 1307 1306 1305 1305 1304 1304 1304 1305 1305 1305 1305 1305 1306 1307 1308 1309 1310 1311 1312 1313 1314 1315 1316 1316 1317 1319 1320 1322 1324 1326 1328 1330 1333 1335 1337 1340 1342 1345 1347 1349 1351 1353 1354 1356 1358 1360 1362 1364
1323 1322 1320 1318 1317 1315 1315 1314 1314 1313 1313 1312 1311 1310 1309 1309 1308 1307 1306 1306 1306 1306 1306 1306 1306 1307 1307 1308 1309 1310 1311 1312 1313 1314 1314 1315 1316 1317 1317 1318 1319 1321 1323 1325 1327 1329 1331 1334 1336 1338 1340 1342 1344 1346 1348 1350 1352 1354 1356 1358 1360 1361 1363
1325 1323 1322 1320 1318 1317 1316 1316 1315 1315 1314 1313 1312 1312 1311 1310 1309 1308 1308 1308 1307 1307 1308 1308 1308 1308 1309 1310 1311 1312 1313 1313 1314 1315 1316 1316 1317 1318 1318 1319 1320 1321 1323 1325 1327 1330 1332 1335 1337 1339 1341 1343 1345 1347 1348 1350 1352 1354 1356 1358 1360 1361 1362
Wind_Speed
25 22 21 21 20 19 17 18 22 24 22 21 22 24 25 26 25 25 23 22 21 22 21 21 21 20 21 21 21 22 22 24 25 27 28 26 27 33 40 43 42 40 41 38 36 35 34 33 33 33 34 35 35 34 34 36 37 36 36 41 44 43 42
24 22 21 21 20 18 16 16 18 20 20 21 21 22 23 25 25 24 22 21 21 21 20 20 20 21 21 21 20 21 22 22 24 25 27 26 26 29 35 41 42 42 43 40 38 39 37 35 34 33 33 35 35 34 34 35 37 36 36 39 42 42 40
23 22 21 19 19 18 19 17 15 15 16 16 18 20 22 24 25 23 22 21 20 19 18 19 20 22 22 20 20 20 21 21 22 24 25 25 25 26 31 36 39 41 43 41 39 40 40 38 37 36 35 35 35 34 34 35 36 36 37 39 40 41 39
20 20 19 19 20 21 21 20 17 15 14 12 13 15 17 20 24 23 21 20 19 17 16 17 19 21 21 20 20 21 21 20 21 23 24 24 24 24 27 32 36 38 41 41 39 39 41 40 39 37 36 35 35 35 34 34 35 34 36 37 38 40 39
18 19 21 23 24 23 22 21 19 17 16 14 13 14 14 15 17 18 19 19 18 17 15 15 16 18 19 19 20 22 21 19 20 21 23 23 23 23 25 30 34 35 38 40 39 38 39 38 37 36 35 34 34 35 35 35 35 35 35 35 36 38 39
20 21 23 25 26 26 25 23 21 20 18 16 15 16 15 14 15 17 18 19 18 17 15 15 16 16 17 19 20 21 21 18 17 19 22 22 22 23 25 29 34 35 36 39 39 37 36 36 35 34 34 34 33 33 35 35 36 36 35 35 34 36 38
21 23 25 27 29 29 27 26 25 23 21 19 17 16 17 16 17 19 20 20 20 18 16 16 16 15 17 19 19 20 21 20 18 18 20 21 21 22 25 29 32 34 36 37 37 37 36 34 34 33 33 32 31 30 32 33 36 38 39 39 37 35 35
22 24 27 29 31 31 31 29 28 27 25 23 20 19 18 18 19 20 21 22 21 19 18 18 18 17 17 18 19 19 20 22 20 18 19 21 21 21 23 26 29 32 35 36 36 36 35 34 33 32 31 30 30 30 31 32 34 36 38 39 39 38 36
22 24 27 29 30 31 32 33 32 31 29 27 24 22 21 21 21 22 23 23 23 22 20 19 20 20 19 19 20 19 19 22 22 19 19 21 22 23 22 23 25 28 32 34 35 35 34 33 32 32 32 32 32 32 32 31 31 32 32 32 34 35 36
18 20 23 24 26 27 29 33 35 34 32 30 27 25 24 24 24 24 25 25 25 25 23 21 22 22 21 20 20 19 20 21 22 22 20 20 21 24 24 23 24 26 29 31 32 33 33 32 32 33 33 33 33 32 31 30 29 30 30 30 30 31 33
14 14 16 18 20 22 24 27 31 33 34 33 31 28 27 27 27 27 27 27 27 27 25 23 22 22 21 20 19 19 20 21 22 22 22 20 19 23 25 24 23 25 26 28 29 30 30 31 31 32 32 32 31 31 30 30 29 30 31 31 32 33 34
11 11 11 13 15 17 20 21 23 26 30 33 33 31 29 29 29 29 29 28 28 27 26 25 24 23 21 20 19 19 20 22 23 23 23 21 20 21 25 25 23 23 24 25 26 27 28 28 28 29 30 30 30 30 30 30 30 30 31 32 33 34 34
10 9 8 9 10 11 15 17 15 15 20 25 29 30 29 29 29 29 29 29 28 27 27 26 25 24 24 22 21 21 20 21 24 24 24 23 21 21 23 24 24 23 22 22 23 25 26 25 25 26 26 26 27 28 29 30 31 32 33 34 34 33 33
10 10 10 10 9 7 9 11 10 9 11 15 19 23 25 26 26 27 27 26 26 25 25 26 26 27 27 25 23 22 22 21 23 25 26 25 24 23 23 24 25 24 23 21 21 22 23 23 22 22 21 21 22 24 25 27 28 29 30 32 32 32 31
14 14 15 15 14 11 7 5 6 7 8 9 13 17 20 22 23 24 24 23 24 23 23 25 27 27 26 24 22 22 21 21 23 24 25 27 27 25 24 25 27 27 26 24 23 22 21 20 20 18 17 17 18 19 20 21 22 23 25 28 30 30 30
16 16 16 16 16 14 10 4 3 4 4 6 9 12 16 19 20 21 22 22 22 23 22 23 25 25 24 23 21 21 21 21 23 23 24 26 28 26 25 26 27 29 29 28 26 24 21 19 18 17 16 16 16 17 18 20 22 23 24 27 29 30 30
14 13 12 12 13 13 10 6 4 4 5 6 7 7 10 13 15 16 19 20 21 20 20 21 21 21 21 22 22 22 22 22 23 23 24 25 25 25 25 24 23 27 31 31 29 27 24 22 21 20 19 17 16 16 17 19 23 25 25 27 28 29 30
11 10 10 11 12 12 11 7 4 4 6 7 7 8 9 10 12 14 16 17 18 18 18 19 19 19 21 22 23 24 24 23 23 24 24 25 23 22 23 21 18 19 25 28 27 25 24 22 22 22 22 20 18 17 18 20 22 23 24 26 28 29 29
12 11 9 10 11 13 12 8 4 3 4 4 5 8 9 10 11 12 13 14 16 17 18 19 20 20 21 23 24 24 23 23 23 24 25 25 26 25 23 21 18 15 17 21 22 21 19 18 17 19 20 20 19 19 19 19 19 20 23 25 27 29 29
13 13 11 11 11 12 12 9 7 6 6 5 6 8 10 11 12 12 13 15 16 18 19 20 21 22 22 23 23 23 22 21 22 25 26 26 29 29 25 22 21 19 18 19 19 18 17 17 16 17 18 20 20 21 20 19 19 20 20 22 25 28 28
14 14 14 13 12 12 13 11 10 10 10 9 9 9 10 12 13 14 16 18 19 20 22 22 23 24 24 24 24 23 22 21 22 25 28 29 31 29 24 22 24 23 22 21 20 19 19 18 18 18 19 20 22 22 21 20 20 19 18 19 22 24 26
15 16 16 16 16 16 16 14 11 11 13 13 13 13 12 13 14 15 17 19 20 22 23 24 24 25 25 26 25 24 23 23 23 24 27 30 30 27 25 24 25 25 25 25 25 26 24 22 22 22 22 22 23 23 22 21 21 19 18 19 20 21 22
15 17 18 18 19 20 19 18 15 12 13 15 15 16 16 15 15 16 16 18 19 20 20 20 21 22 24 26 27 26 25 24 25 25 26 27 27 27 27 27 27 27 27 27 27 28 28 27 27 27 27 25 24 23 23 23 22 20 19 19 19 20 19
17 20 21 20 21 22 21 21 20 15 12 15 17 16 15 14 15 16 16 17 16 15 15 15 15 16 18 20 23 27 27 26 26 27 27 27 27 28 28 30 31 30 29 28 28 28 29 29 30 31 31 29 25 22 23 24 23 21 20 19 19 20 19
21 23 23 21 22 23 22 21 21 17 10 11 15 14 12 12 12 12 11 11 10 10 12 13 14 14 16 17 19 23 27 28 29 29 29 28 29 29 31 34 35 33 31 30 30 29 29 30 31 32 33 30 24 22 23 25 24 23 21 20 20 21 21
24 24 24 23 24 24 21 20 19 13 5 4 9 10 8 7 6 6 6 6 8 10 12 13 12 12 13 14 14 15 19 23 27 29 29 30 30 32 35 37 37 35 33 32 32 32 32 32 32 32 32 30 25 23 23 25 24 24 23 22 22 22 22
27 25 24 25 26 24 20 18 15 8 3 3 4 3 1 3 4 4 5 6 8 9 10 9 10 10 9 10 10 11 12 15 18 20 22 24 25 26 29 33 34 34 34 34 34 35 34 33 32 32 31 30 27 25 24 24 24 23 23 23 23 22 23
26 25 23 24 25 24 20 16 12 6 3 3 1 2 3 3 3 4 4 5 6 6 7 7 8 9 9 10 11 12 12 13 13 13 14 15 15 16 20 24 28 30 31 31 31 31 30 30 29 30 30 29 27 25 24 24 23 22 23 24 24 23 23
22 21 21 21 22 21 17 14 9 5 3 2 1 3 2 2 3 4 4 4 3 4 5 6 7 8 9 9 9 10 10 10 10 9 10 11 12 13 15 17 20 22 23 22 22 23 24 25 27 29 29 28 26 25 24 24 23 22 23 23 23 22 22
17 17 17 17 19 19 15 11 8 5 3 1 2 2 3 3 4 4 5 5 3 2 3 4 5 6 5 5 7 8 8 8 9 11 12 13 13 12 12 13 13 14 15 16 17 18 20 23 26 28 28 27 26 26 25 24 24 23 22 22 22 22 21
14 14 14 14 17 17 14 9 8 7 5 4 5 5 4 4 5 5 5 4 3 2 2 2 3 3 4 5 6 7 7 9 12 13 13 13 12 11 10 10 11 12 13 15 16 17 19 22 26 27 28 27 26 26 26 25 24 23 22 21 20 20 20
15 13 14 13 13 13 12 11 10 10 9 8 8 6 5 5 6 6 6 5 4 2 1 0 1 2 4 6 7 8 9 11 13 13 11 10 10 10 9 8 10 12 13 14 15 17 20 23 25 26 27 27 26 26 25 24 23 22 20 19 18 18 18
15 14 15 15 12 11 11 11 10 11 11 10 8 7 6 5 6 7 8 8 6 5 3 2 2 3 4 6 7 8 10 11 11 9 7 7 8 9 9 8 10 12 13 12 13 16 19 22 25 26 26 26 24 23 23 22 21 20 19 19 19 19 18
16 15 15 16 13 12 12 11 10 10 10 9 9 9 8 6 6 8 9 9 7 6 5 5 5 5 5 6 7 8 9 9 8 7 6 6 7 7 8 9 12 13 12 12 13 16 19 22 25 25 24 23 23 22 21 20 20 20 20 20 20 19 18
18 17 15 14 14 15 14 12 11 11 10 10 11 11 9 7 7 8 9 9 8 6 6 6 6 6 6 6 6 7 8 7 7 6 6 6 6 6 8 11 13 13 12 12 13 15 19 23 24 22 20 20 21 21 20 19 19 20 20 19 19 17 16
18 16 13 11 12 13 13 11 11 11 10 10 11 10 9 8 8 9 10 10 9 8 7 7 7 7 7 7 6 7 7 6 6 6 6 6 5 5 8 12 14 13 14 14 14 16 20 22 21 19 17 17 17 17 18 18 19 19 18 17 16 14 13
Wind_Direction
269 275 276 277 280 281 279 268 259 256 256 259 257 250 244 241 241 243 244 246 248 250 252 254 255 248 240 240 247 252 254 251 246 244 245 248 252 253 245 237 231 232 238 241 244 245 245 245 243 240 240 242 243 244 244 245 245 243 239 235 231 227 225
270 276 279 278 279 282 282 273 260 256 257 258 257 252 246 240 236 239 243 246 248 247 248 250 251 249 244 241 245 251 255 254 249 245 245 244 247 252 250 243 235 232 235 238 240 243 244 243 241 239 238 240 243 244 244 247 248 244 238 235 233 230 225
272 277 280 279 280 280 276 268 258 250 251 255 255 252 249 239 232 236 244 248 249 248 247 248 248 248 247 244 244 250 257 257 250 246 245 243 244 249 251 249 242 236 235 236 236 238 240 241 240 240 239 240 242 244 243 245 247 245 240 236 234 233 229
275 278 276 272 272 271 266 261 257 247 241 244 247 249 250 242 234 235 243 247 248 246 247 249 248 247 247 246 244 247 256 258 250 244 245 244 242 245 249 249 246 241 238 236 234 235 238 240 241 242 241 241 241 242 242 243 245 245 242 238 234 232 231
281 277 268 264 264 265 262 257 257 253 245 238 232 233 240 241 236 233 237 240 242 242 246 250 251 248 246 246 245 245 251 257 251 243 243 244 242 242 246 247 246 244 241 236 233 233 235 236 238 240 241 240 238 239 239 239 241 243 241 238 234 229 229
278 275 270 267 266 264 260 256 256 256 251 244 234 229 229 230 227 226 228 232 235 239 245 250 253 251 246 245 244 242 245 252 254 245 241 241 241 240 242 243 243 242 240 236 232 231 232 233 234 236 237 237 236 236 237 237 239 240 239 237 234 228 227
276 274 272 270 269 266 260 256 254 255 253 249 243 237 232 230 227 227 229 232 234 240 247 250 251 252 250 247 246 243 240 245 254 252 244 240 239 240 240 239 239 238 237 234 230 229 230 231 233 234 235 236 234 233 235 236 238 239 238 237 236 233 230
276 271 269 269 268 266 261 257 253 251 253 252 248 244 241 239 236 234 235 237 239 245 251 252 250 251 252 251 250 245 239 240 247 253 251 242 237 238 239 238 238 237 236 233 228 227 228 229 230 231 231 231 230 229 230 232 234 236 238 238 238 237 234
276 273 271 269 268 265 260 256 252 249 250 252 252 250 249 248 246 244 244 244 246 250 255 255 250 249 252 253 253 248 238 235 239 247 256 251 240 235 235 237 238 238 237 233 227 225 226 225 226 228 228 228 229 230 230 230 231 233 237 239 238 238 236
279 275 274 272 271 267 260 254 251 249 249 251 254 255 255 255 254 253 253 253 254 255 259 257 250 247 249 252 256 253 241 234 236 244 256 260 248 238 234 235 236 236 236 234 229 227 226 225 226 229 231 233 235 234 233 232 232 232 233 233 234 235 236
288 281 277 274 273 272 266 258 252 249 248 249 252 256 258 259 259 258 258 258 258 258 260 258 249 245 246 247 252 253 244 237 237 243 251 257 253 243 237 234 234 234 234 234 232 231 231 230 231 233 234 236 236 235 234 234 234 232 232 232 232 233 234
306 296 287 280 276 274 273 268 258 250 247 246 247 251 254 257 259 259 258 258 259 258 259 257 249 242 242 242 245 250 248 242 239 240 244 248 250 246 239 234 232 232 232 232 232 232 233 234 235 236 236 235 235 234 234 234 233 233 235 236 236 236 235
331 324 318 306 294 281 275 274 268 254 245 243 242 244 247 250 251 253 254 255 256 256 255 253 246 240 241 242 243 247 248 245 240 237 238 242 245 247 242 235 232 231 231 233 233 234 236 237 236 236 238 239 238 237 234 233 233 234 235 237 238 238 238
357 359 359 351 343 327 293 280 271 254 241 238 238 238 240 242 243 246 249 251 252 252 249 245 242 242 246 249 248 247 246 244 239 234 233 236 240 243 244 240 236 234 232 231 231 232 237 240 239 239 242 243 241 239 237 237 237 237 237 239 240 240 239
13 17 20 18 14 7 346 301 269 250 234 234 242 242 237 237 238 240 244 246 248 250 248 244 244 246 249 252 251 250 246 241 237 231 228 231 234 239 245 243 237 236 237 235 233 233 237 241 244 244 244 242 241 242 244 245 246 245 243 241 240 237 236
23 24 25 24 17 8 1 352 306 277 260 262 269 257 241 236 237 239 241 243 245 246 246 245 244 244 245 247 248 248 244 238 234 231 227 228 232 238 245 243 236 234 237 239 240 240 241 244 247 246 243 240 239 241 242 241 240 239 238 237 235 234 235
28 29 27 24 15 3 356 351 337 313 291 281 278 260 238 234 234 233 235 238 240 244 246 247 246 245 245 245 245 246 243 236 230 228 227 229 234 239 243 242 237 232 232 235 239 242 243 246 247 248 246 242 240 240 238 234 232 231 230 231 231 231 232
12 18 21 21 13 0 349 341 337 312 278 268 265 256 245 239 235 231 231 234 236 239 242 244 245 244 244 245 247 250 250 241 229 223 224 228 234 238 237 235 234 230 227 230 235 238 240 242 243 245 245 241 239 239 237 234 232 230 228 228 229 231 231
1 1 4 11 11 1 347 326 300 287 280 271 268 259 249 243 243 243 242 242 242 241 242 242 242 241 242 244 246 250 252 246 233 225 225 227 231 235 233 227 224 221 217 219 220 220 222 226 230 234 236 234 234 236 238 240 239 235 231 229 229 229 228
11 7 5 6 7 1 347 321 282 274 279 272 265 263 255 247 246 248 250 251 252 252 250 248 245 242 241 242 244 246 247 243 234 230 231 231 231 234 232 222 217 216 215 217 220 218 219 222 222 224 226 226 228 231 235 239 240 238 236 233 230 230 231
17 16 14 11 7 1 351 328 291 271 268 265 261 263 266 261 254 249 249 250 251 252 252 251 250 247 244 242 243 243 241 238 233 230 232 233 234 234 230 221 218 217 215 219 224 226 227 227 225 224 224 223 225 229 233 235 236 236 236 234 233 233 234
16 13 11 10 8 6 0 346 314 277 263 261 258 258 265 271 268 263 258 256 255 253 252 252 251 251 249 246 243 242 239 236 232 229 230 233 235 234 228 224 224 223 222 223 225 225 226 230 231 229 227 225 224 227 231 232 231 230 230 231 235 236 236
13 9 6 3 2 2 359 351 337 303 267 257 257 260 264 269 271 270 267 266 266 264 263 261 257 253 251 248 244 240 236 234 233 231 229 231 233 231 227 226 227 228 230 231 230 227 225 229 233 232 230 228 226 225 228 230 228 225 225 228 231 234 235
12 7 3 357 354 355 352 346 342 329 286 257 253 259 266 269 271 272 272 273 273 274 274 273 268 260 252 247 242 236 231 230 233 234 232 233 234 233 232 231 229 230 232 233 231 228 226 228 231 232 230 230 229 226 226 227 224 220 221 223 226 228 228
9 5 0 354 349 350 347 341 342 340 313 262 252 258 270 279 281 281 280 274 271 273 271 267 266 261 251 245 240 233 228 227 230 233 233 234 234 234 233 231 228 228 229 229 227 226 226 228 229 229 228 229 230 229 225 223 220 216 215 217 219 221 222
4 0 355 350 350 349 345 341 342 345 338 269 259 262 276 294 300 300 294 276 267 271 269 262 259 256 249 244 238 230 227 226 227 230 232 233 234 233 232 230 227 225 225 225 224 223 223 225 227 226 224 222 224 225 223 221 218 215 213 214 215 216 216
359 356 350 347 350 351 345 342 343 345 344 311 289 273 345 4 348 323 303 285 276 276 270 257 249 243 237 230 218 208 208 212 214 217 221 224 226 227 227 226 223 221 221 222 222 220 219 219 221 220 217 215 215 217 217 216 217 216 213 212 213 213 213
352 351 347 344 347 350 346 345 345 341 335 330 302 139 106 53 4 337 313 295 285 279 267 249 237 228 222 219 214 209 208 209 210 210 212 213 210 208 211 215 215 215 217 218 219 217 215 214 214 212 211 210 210 210 210 210 211 214 213 210 209 210 211
348 349 343 340 346 350 347 345 347 346 346 343 173 143 100 31 7 1 353 339 315 283 257 237 225 216 214 214 212 208 207 209 211 206 201 200 198 196 196 200 204 207 209 210 213 213 212 211 210 207 205 205 204 203 203 204 204 207 208 207 206 209 213
350 348 341 343 355 359 353 349 358 7 7 34 117 89 48 26 12 9 15 15 355 295 256 231 214 204 199 196 192 187 188 196 195 187 181 179 179 178 179 180 185 191 195 198 203 207 209 210 208 204 201 200 199 197 196 196 197 200 204 206 209 212 216
352 352 352 356 4 8 10 21 40 52 63 84 90 78 58 43 34 30 38 39 23 332 278 235 207 187 163 160 169 172 176 185 182 174 170 166 161 159 165 172 178 183 186 191 195 201 207 210 207 202 198 196 196 194 193 194 195 198 205 211 215 217 215
359 1 9 11 11 19 35 51 62 69 76 83 81 71 59 56 58 60 63 60 51 40 27 251 218 172 152 154 161 164 169 174 171 163 159 159 159 158 159 165 175 178 178 184 194 202 206 205 203 200 196 193 193 193 193 195 198 203 208 210 208 207 206
11 9 19 25 26 34 49 58 66 75 78 75 68 57 49 56 76 82 77 67 57 52 58 66 74 99 128 145 156 161 166 170 168 161 155 154 158 161 157 156 165 169 171 180 194 202 203 201 198 195 191 189 192 196 198 201 204 206 205 200 195 193 194
25 22 27 34 40 49 55 60 69 75 66 51 46 44 43 55 83 90 84 74 61 52 52 57 69 87 110 134 151 161 170 173 166 157 149 146 151 160 163 160 161 164 170 181 191 197 199 196 192 190 190 192 196 198 201 205 205 200 194 191 190 189 189
24 30 34 43 59 71 72 66 66 65 52 39 41 44 46 58 81 89 87 80 70 61 59 64 76 92 106 123 143 156 163 163 152 145 146 149 152 163 169 166 162 162 167 175 184 191 194 192 189 189 194 198 199 199 199 198 196 192 189 188 188 189 189
17 31 43 55 71 83 86 79 69 63 56 50 51 53 56 67 82 86 84 81 78 77 82 87 93 100 107 115 127 136 141 142 140 140 147 153 157 166 171 167 161 160 165 169 175 183 188 189 189 189 192 195 197 196 193 189 185 185 185 185 187 188 188